#timestamp,LO_Frequency,Hit,StdDev 
1622206815.9,286047001.0,N
1622206835.7,286047000.1,N
1622206855.5,286047000.9,N
1622206875.4,286047000.4,N
1622206895.2,286047000.6,N
1622206915.0,286046998.2,N
1622206915.9,286046998.2,N
1622206935.8,286047001.2,N
1622206955.6,286047001.1,N
1622206975.5,286046998.1,N
1622206995.3,286046998.1,N
1622207015.1,286046998.1,N
1622207035.9,286046998.1,N
1622207055.7,286046998.2,N
1622207075.5,286046998.6,N
1622207095.4,286046998.5,N
1622207115.2,286046998.5,N
1622207135.1,286046998.6,N
1622207136.0,286046998.6,N
1622207155.8,286046998.5,N
1622207175.6,286047000.7,N
1622207195.5,286046998.2,N
1622207215.3,286046998.5,N
1622207235.1,286046998.2,N
1622207255.9,286046998.6,N
1622207275.7,286046998.5,N
1622207295.6,286046998.6,N
1622207315.4,286046998.5,N
1622207335.2,286047001.1,N
1622207355.1,286047001.2,N
1622207356.0,286047001.2,N
1622207375.8,286047001.2,N
1622207395.6,286046998.1,N
1622207415.5,286047001.2,N
1622207435.3,286047001.1,N
1622207455.2,286046998.2,N
1622207475.9,286047001.2,N
1622207495.7,286047001.0,N
1622207515.6,286046998.5,N
1622207535.4,286047000.4,N
1622207555.2,286046998.3,N
1622207575.1,286046998.6,N
1622207576.0,286046998.6,N
1622207595.8,286046998.4,N
1622207615.7,286046998.3,N
1622207635.5,286046998.5,N
1622207655.3,286046999.4,N
1622207675.2,286046996.9,N
1622207695.0,286046996.8,N
1622207695.9,286046996.8,N
1622207715.8,286046999.5,N
1622207735.6,286046996.7,N
1622207755.4,286046996.7,N
1622207775.3,286046996.9,N
1622207795.1,286046999.1,N
1622207815.8,286046996.6,N
1622207835.7,286046996.9,N
1622207855.5,286046999.4,N
1622207875.4,286046996.5,N
1622207895.2,286046999.2,N
1622207915.0,286046996.8,N
1622207915.9,286046996.8,N
1622207935.8,286046996.6,N
1622207955.6,286046998.3,N
1622207975.5,286046998.8,N
1622207995.3,286046998.6,N
1622208015.1,286047000.6,N
1622208035.9,286047000.3,N
1622208055.7,286046998.1,N
1622208075.5,286046998.2,N
1622208095.4,286047001.0,N
1622208115.2,286046998.5,N
1622208135.1,286047000.5,N
1622208136.0,286047000.5,N
1622208155.8,286046998.2,N
1622208175.6,286047000.6,N
1622208195.5,286047000.9,N
1622208215.3,286047000.4,N
1622208235.1,286047000.3,N
1622208255.9,286047000.3,N
1622208275.7,286047000.2,N
1622208295.6,286047000.2,N
1622208315.4,286046999.9,N
1622208335.2,286047000.9,N
1622208355.1,286047002.3,N
1622208356.0,286047002.3,N
1622208375.8,286047000.1,N
1622208395.6,286047000.2,N
1622208415.5,286047000.4,N
1622208435.3,286047000.8,N
1622208455.2,286047000.2,N
1622208475.9,286046999.8,N
1622208495.7,286047000.5,N
1622208515.6,286047000.0,N
1622208535.4,286046999.8,N
1622208555.2,286046999.8,N
1622208575.1,286047002.8,N
1622208576.0,286047002.8,N
1622208595.8,286047002.3,N
1622208615.7,286047002.3,N
1622208635.5,286046999.7,N
1622208655.3,286047002.7,N
1622208675.2,286047000.0,N
1622208695.0,286046999.9,N
1622208695.9,286046999.9,N
1622208715.8,286046999.8,N
1622208735.6,286047000.2,N
1622208755.4,286047002.7,N
1622208775.3,286047002.7,N
1622208795.1,286047002.3,N
1622208815.8,286047002.4,N
1622208835.7,286047002.2,N
1622208855.5,286047002.2,N
1622208875.4,286047002.6,N
1622208895.2,286047000.1,N
1622208915.0,286047000.2,N
1622208915.9,286047000.2,N
1622208935.8,286046999.9,N
1622208955.6,286047000.9,N
1622208975.5,286046999.7,N
1622208995.3,286047002.4,N
1622209015.1,286047001.9,N
1622209035.9,286047002.1,N
1622209055.7,286047002.3,N
1622209075.5,286047000.0,N
1622209095.4,286046999.9,N
1622209115.2,286047000.2,N
1622209135.1,286047000.1,N
1622209136.0,286047000.1,N
1622209155.8,286047000.3,N
1622209175.6,286046999.9,N
1622209195.5,286047001.0,N
1622209215.3,286047000.6,N
1622209235.2,286047002.6,N
1622209255.9,286047002.5,N
1622209275.7,286047002.6,N
1622209295.6,286047002.8,N
1622209315.4,286047002.5,N
1622209335.2,286047002.4,N
1622209355.1,286047002.3,N
1622209356.0,286047002.3,N
1622209375.8,286046999.7,N
1622209395.7,286047000.6,N
1622209415.5,286047000.3,N
1622209435.3,286047002.6,N
1622209455.2,286047002.1,N
1622209475.0,286047002.5,N
1622209475.9,286047002.5,N
1622209495.7,286047000.6,N
1622209515.6,286047000.5,N
1622209535.4,286047000.4,N
1622209555.3,286047002.7,N
1622209575.1,286047002.5,N
1622209576.0,286047002.5,N
1622209595.8,286047002.3,N
1622209615.7,286046999.9,N
1622209635.5,286047000.0,N
1622209655.4,286047000.2,N
1622209675.2,286047002.8,N
1622209695.0,286046999.9,N
1622209695.9,286046999.9,N
1622209715.8,286047000.9,N
1622209735.6,286047000.6,N
1622209755.4,286046999.8,N
1622209775.3,286047000.0,N
1622209795.1,286047000.3,N
1622209815.9,286046999.9,N
1622209835.7,286047002.3,N
1622209855.5,286047000.1,N
1622209875.4,286047002.8,N
1622209895.2,286047000.1,N
1622209915.0,286047002.6,N
1622209916.0,286047002.6,N
1622209935.8,286046999.9,N
1622209955.6,286047002.7,N
1622209975.5,286046999.8,N
1622209995.3,286047000.9,N
1622210015.1,286047000.2,N
1622210035.9,286047000.6,N
1622210055.7,286047000.0,N
1622210075.6,286047000.9,N
1622210095.4,286047000.9,N
1622210115.2,286047000.2,N
1622210135.1,286047000.9,N
1622210136.0,286047000.9,N
1622210155.8,286046999.7,N
1622210175.6,286047000.1,N
1622210195.5,286047000.6,N
1622210215.3,286046999.7,N
1622210235.2,286047000.0,N
1622210255.9,286046999.7,N
1622210275.7,286047002.3,N
1622210295.6,286047000.2,N
1622210315.4,286046999.7,N
1622210335.3,286047002.2,N
1622210355.1,286047002.0,N
1622210356.0,286047002.0,N
1622210375.8,286046999.7,N
1622210395.7,286047002.6,N
